STARLINK-31247, 59206

Orbit data source: Space-Track

STARLINK-31247, 59206 is a payload satellite owned by SpaceX/Seattle (US) in LEO that was launched on Mon, 11 Mar 2024 UTC via an FALCON 9 launch vehicle from the Air Force Western Test Range (AFWTR). Payload-class satellites include a variety of spacecraft equipped with specific instruments for various scientific and technological missions. These include communications satellites like Starlink; space stations such as the ISS; scientific satellites like the Hubble; Earth observation satellites from companies like Planet Labs, Umbra, and HawkEye 360; GPS; miniature CubeSats for education and research; and military/defense satellites.

Loading next visibility...
Identifier
59206, 2024-046F
Orbit
LEO
Country
Flag of USUS
Related business
Manufacturer
SpaceX/Seattle
Mission
Operational Commercial Communications
Bus & Motor
STARLINK V2M, Unknown motor
Mass
730 kg wet, ~700 kg dry
Launch date (UTC)
2024-03-11 (2 years ago)
Launch vehicle
FALCON 9
Launch site
Air Force Western Test Range (AFWTR)
Object type
Payload
Rocket body
Debris
Shape & HBR
Box + 2 Pan, 17.7 m
Radar Cross Section
33.884 m², Large (>1 m²)

Expand to show TLE details & history
Last TLE update: 2 days ago

TLE from 2 days ago
0 STARLINK-31247
1 59206U 24046F   26171.01136651  .00004253  00000-0  15562-3 0  9994
2 59206  53.1600  40.1875 0001315  89.5778 270.5373 15.30206994128713
Epoch: 2026-06-20T00:16Z
TLE epoch observation values (Epoch: 2026-06-20T00:16:22.066Z)
Latitude
-0.00006°
Longitude
127.8634°
Altitude
476.086 km
Speed
7.629 km/s
True Right ascension
02h 40m 44s
True Declination
0° 00' 00"
Sunlit
Object was in daylight at epoch
Visualization orbit readout
Latitude
Unknown
Longitude
Unknown
Altitude
Unknown
Speed
Unknown
Apparent Right ascension
Unknown
Apparent Declination
Unknown
Sunlit
N/A
Visualization observer readout
Local Sidereal Time
21:33:51
Azimuth
Unknown
Elevation
Unknown
Doppler factor
Unknown
Orbital elements
Apogee altitude
476.352 km
Perigee altitude
474.549 km
Semi-major axis
6,853.588 km
Eccentricity
0.00013
Inclination
53.16°
RAAN
40.1875°
Arg. of periapsis
89.5778°
True anomaly
270.52223°
Mean anomaly
270.5373°
Eccentric anomaly
270.52977°
Mean motion
3.82531 °/min
Orbital period
94.11 mins
BSTAR
0.00015562
Loading maneuver chart data...
Computing Atmospheric mass density...
Loading historical data...
Loading historical data...
Loading historical data...
Loading historical data...
Loading historical data...
Loading historical data...
Loading historical data...

Documentation

Showing up to 5 results
|